Regional Weather Roundup
Issued by NWS

Home | Current Version | Previous Version | Text Only | Print | Product List | Glossary Off
Versions: 1 2 3 4 5 6 7 8 9 10 11 12 13 14 15 16 17 18 19 20 21 22 23 24 25 26 27 28 29 30 31 32 33 34 35 36 37 38 39 40 41 42 43 44 45 46 47 48 49 50

000
ASUS43 KBIS 201802
RWRND

NORTH DAKOTA REGIONAL WEATHER ROUNDUP
NATIONAL WEATHER SERVICE BISMARCK ND
1200 PM CST FRI JAN 20 2017

NOTE: "FAIR" INDICATES FEW OR NO CLOUDS BELOW 12,000 FEET WITH NO
SIGNIFICANT WEATHER AND/OR OBSTRUCTIONS TO VISIBILITY.


NDZ001>003-009>011-017-201900-
NORTHWEST NORTH DAKOTA

CITY           SKY/WX    TMP DP  RH WIND       PRES   REMARKS
WILLISTON      FAIR      23  18  81 CALM      29.38F
6HR MIN TEMP:  10; 6HR MAX TEMP:  23;

MINOT          FAIR      25  20  81 S8        29.38F WCI  16
$$

NDZ018>021-031>035-040>046-201900-
SOUTHWEST NORTH DAKOTA

CITY           SKY/WX    TMP DP  RH WIND       PRES   REMARKS
BISMARCK       CLOUDY    28  26  92 W3        29.40F FOG
6HR MIN TEMP:  22; 6HR MAX TEMP:  28;

DICKINSON      FAIR      29  25  85 NW7       29.34S
GARRISON         N/A     20  17  88 S3        29.39F
6HR MIN TEMP:  10; 6HR MAX TEMP:  20;

HETTINGER ARPT MOSUNNY   33  27  78 N13       29.36F
$$

NDZ004>008-012>016-024-026-027-054-201900-
NORTHEAST NORTH DAKOTA

CITY           SKY/WX    TMP DP  RH WIND       PRES   REMARKS
GRAND FORKS    CLOUDY    36  33  89 SE12      29.50F FOG
GRND FRKS AFB  FOG       35  34  99 S9        29.49S VSB 3/4
DEVILS LAKE    CLOUDY    34  33  96 SE10      29.44S FOG
$$

NDZ022-023-025-028>030-036>039-047>053-201900-
SOUTHEAST NORTH DAKOTA

CITY           SKY/WX    TMP DP  RH WIND       PRES   REMARKS
FARGO          CLOUDY    38  35  89 SE12      29.50F FOG
6HR MIN TEMP:  36; 6HR MAX TEMP:  50;

JAMESTOWN      FOG       33  33 100 SE15      29.41F VSB 1
$$





USA.gov is the U.S. government's official web portal to all federal, state and local government web resources and services.